CZ-3A DEB, 48531

Orbit data source: Space-Track

CZ-3A DEB, 48531 is space debris in HEO originally from a launch on Fri, 02 Feb 2007 UTC launched from the Xichang Space Center, China (XSC). Debris objects in space refer to the collection of defunct objects orbiting the Earth. Examples of debris include non-operational satellites, rocket bodies, and fragments generated from explosions, collisions, or faulty payload assembly.

Loading next visibility...
Identifier
48531, 2007-003AT
Orbit
HEO
Country
Flag of CNCN / PRC
Related business
Manufacturer
Unknown
Mission
Spacecraft
Bus & Motor
Unknown
Mass
Unknown
Launch date (UTC)
2007-02-02 (19 years ago)
Launch vehicle
Unknown
Launch site
Xichang Space Center, China (XSC)
Object type
Payload
Rocket body
Debris
Shape & HBR
Unknown shape, 0.2 m
Radar Cross Section
Medium (>0.1 m² and <1 m²)

Expand to show TLE details & history
Last TLE update: 2 days ago

TLE from 2 days ago
0 CZ-3A DEB
1 48531U 07003AT  26171.27097176  .00004455  00000-0  48792-2 0  9997
2 48531  23.2319   2.1756 7121401  46.9019 354.0439  2.43887657 84267
Epoch: 2026-06-20T06:30Z
TLE epoch observation values (Epoch: 2026-06-20T06:30:11.960Z)
Latitude
0.00005°
Longitude
-3.86027°
Altitude
1,346.585 km
Speed
9.279 km/s
True Right ascension
00h 08m 42s
True Declination
0° 00' 00"
Sunlit
Object was in daylight at epoch
Visualization orbit readout
Latitude
Unknown
Longitude
Unknown
Altitude
Unknown
Speed
Unknown
Apparent Right ascension
Unknown
Apparent Declination
Unknown
Sunlit
N/A
Visualization observer readout
Local Sidereal Time
21:40:32
Azimuth
Unknown
Elevation
Unknown
Doppler factor
Unknown
Orbital elements
Apogee altitude
33,545.138 km
Perigee altitude
334.112 km
Semi-major axis
23,317.762 km
Eccentricity
0.71214
Inclination
23.2319°
RAAN
2.1756°
Arg. of periapsis
46.9019°
True anomaly
314.032°
Mean anomaly
354.0439°
Eccentric anomaly
340.26823°
Mean motion
0.60955 °/min
Orbital period
590.59 mins
BSTAR
0.0048792
Loading maneuver chart data...
Computing Atmospheric mass density...
Loading historical data...
Loading historical data...
Loading historical data...
Loading historical data...
Loading historical data...
Loading historical data...
Loading historical data...

Documentation

Showing up to 5 results
|